Location: Frysztak
(49.8373°N, 21.6089°E)
Time: 18:56:27
(UTC+02:00)

ISS - Pass Details

Date: 25 September 2018
Orbit: 403 x 408 km, 51.6° (Epoch: 23 October)

Event Time Altitude Azimuth Distance (km) Brightness Sun altitude
Rises 19:22:51 0° 225° (SW) 2,330 0.5 -10.0°
Reaches altitude 10° 19:25:02 10° 216° (SW) 1,472 -0.7 -10.4°
Maximum altitude 19:28:05 35° 149° (SSE) 682 -3.0 -10.9°
Enters shadow 19:30:03 18° 91° (E) 1,089 -2.3 -11.2°
